+ View the NASA Portal
+ Center for Near-Earth Object Studies
JPL Small-Body Database Browser
Search:
[
help
]
14783 (3152 T-3)
Classification:
Main-belt Asteroid
SPK-ID:
2014783
[
Ephemeris
|
Orbit Diagram
|
Orbital Elements
|
Mission Design
|
Physical Parameters
|
Discovery Circumstances
|
Close-Approach Data
]
[ show orbit diagram ]
Orbital Elements at Epoch 2459200.5 (2020-Dec-17.0) TDB
Reference:
JPL 32
(heliocentric ecliptic J2000)
Element
Value
Uncertainty (1-sigma)
Units
e
.09961715865102228
3.5126e-08
a
2.916597737884314
1.6031e-08
au
q
2.626054558308279
1.0523e-07
au
i
2.816345497401035
4.5599e-06
deg
node
50.62395618745847
8.2494e-05
deg
peri
254.4675439361536
8.8258e-05
deg
M
302.8817061288131
3.3856e-05
deg
t
p
2459489.159566167308
(2021-Oct-01.65956617)
0.00017129
TDB
period
1819.337322199877
4.98
1.5e-05
4.107e-08
d
yr
n
.197874245532819
1.6314e-09
deg/d
Q
3.207140917460349
1.7628e-08
au
Orbit Determination Parameters
# obs. used (total)
1621
data-arc span
15613 days (42.75 yr)
first obs. used
1977-10-07
last obs. used
2020-07-06
planetary ephem.
DE441
SB-pert. ephem.
SB441-N16
condition code
0
norm. resid. RMS
.5043
source
ORB
producer
Otto Matic
solution date
2021-Apr-13 00:39:12
Additional Information
Earth MOID
= 1.61076 au
Jupiter MOID
= 1.994 au
T_jup
= 3.272
[ show covariance matrix ]
[
Ephemeris
|
Orbit Diagram
|
Orbital Elements
|
Mission Design
|
Physical Parameters
|
Discovery Circumstances
|
Close-Approach Data
]
Physical Parameter Table
Parameter
Symbol
Value
Units
Sigma
Reference
Notes
absolute magnitude
H
13.71
n/a
E2020-QM5
diameter
diameter
4.938
km
0.273
urn:nasa:pds:neowise_diameters_albedos::2.0[mainbelt] (http://adsabs.harvard.edu/abs/2011ApJ...741...68M)
geometric albedo
albedo
0.288
0.032
urn:nasa:pds:neowise_diameters_albedos::2.0[mainbelt] (http://adsabs.harvard.edu/abs/2011ApJ...741...68M)
14783 (3152 T-3)
Discovered 1977-Oct-16 by van Houten, C. J., van Houten-Groeneveld, I., Gehrels, T. at Palomar
Reference:
20000418/Numbers.arc
Last Updated:
2004-04-19
[ show close-approach data ]
Alternate Designations
3152 T-3
= 1982 UP4 = 1997 TE19
[
Ephemeris
|
Orbit Diagram
|
Orbital Elements
|
Mission Design
|
Physical Parameters
|
Discovery Circumstances
|
Close-Approach Data
]
2021-Apr-18 08:40 UT
(server date/time)
Site Manager:
Ryan S. Park
Webmaster
:
Alan B. Chamberlin